Location: Asheville, NC
(35.6000°N, 82.5500°W)
Time: 11:15:04
(UTC-04:00)

OTV 5 (USA 277) - Pass Details

Date: 10 October 2017
Orbit: 404 x 417 km, 43.0° (Epoch: 07 September)

Event Time Altitude Azimuth Distance (km) Brightness Sun altitude
Rises 19:40:38 0° 238° (WSW) 2,340 ? -8.9°
Reaches altitude 10° 19:42:44 10° 237° (WSW) 1,480 ? -9.3°
Maximum altitude 19:46:04 76° 152° (SSE) 430 ? -10.0°
Enters shadow 19:48:51 14° 66° (ENE) 1,256 ? -10.5°
